Location: Balaclava NSW 2575, Australia
(34.4510°S, 150.4953°E)
Time: 18:34:28
(UTC+10:00)

Vanguard 2 - Pass Details

Date: 22 June 2021
Orbit: 552 x 2937 km, 32.9° (Epoch: 24 July)

Event Time Altitude Azimuth Distance (km) Brightness Sun altitude
Rises 04:59:08 0° 298° (WNW) 3,225 - -25.1°
Reaches altitude 10° 05:01:11 10° 303° (WNW) 2,483 - -24.6°
Exits shadow 05:03:45 30° 314° (NW) 1,690 8.9 -24.1°
Maximum altitude 05:06:59 59° 21° (NNE) 1,324 8.8 -23.5°
Drops below altitude 10° 05:16:43 10° 97° (E) 4,073 12.2 -21.5°
Sets 05:21:00 0° 100° (E) 5,470 13.0 -20.7°
